Weather History for Silver City, NM

Change the Weather History Date:

Tuesday, January 28, 2014

  Actual Average (KDMN) Record (KDMN)
Temperature  
Mean Temperature 41 °F 44 °F  
Max Temperature 59 °F 59 °F 76 °F (1986)
Min Temperature 23 °F 29 °F 10 °F (1948)
Degree Days  
Heating Degree Days 24    
Moisture  
Dew Point 13 °F    
Average Humidity 34    
Maximum Humidity 64    
Minimum Humidity 13    
Precipitation  
Precipitation 0.00 in 0.02 in 0.20 in (1948)
Month to date precipitation 0.54  
Year to date precipitation 0.54  
Sea Level Pressure  
Sea Level Pressure 30.11 in    
Wind  
Wind Speed 12 mph (NW)    
Max Wind Speed 20 mph    
Max Gust Speed 26 mph    
Visibility 10 miles    
Events Thunderstorm    
T = Trace of Precipitation, MM = Missing Value Source: NWS Daily Summary

Daily Weather History Graph

Daily Weather History Graph

Search for Another Location

Airport:

Trip Planner

Search our weather history database for the weather conditions in past years. The results will help you decide how hot, cold, wet, or windy it might be!

Date:

Astronomy

Jan. 28, 2014 Rise Set
Actual Time 7:09 AM MST 5:41 PM MST
Civil Twilight 6:43 AM MST 6:07 PM MST
Nautical Twilight 6:14 AM MST 6:37 PM MST
Astronomical Twilight 5:44 AM MST 7:06 PM MST
Moon 4:52 AM MST (1/28) 3:37 PM MST (1/28)
Length of Visible Light 11h 24m
Length of Day
10h 32m
Waning Crescent, 7% of the Moon is Illuminated
Jan 28
Waning Crescent
Jan 30
New
Feb 6
First Quarter
Feb 14
Full
Feb 22
Last Quarter

Hourly Weather History & Observations

Time (MST) Temp. Windchill Dew Point Humidity Pressure Visibility Wind Dir Wind Speed Gust Speed Precip Events Conditions
12:15 AM 41.0 °F 32.5 °F 19.4 °F 42% 30.05 in 10.0 mi NNW 17.3 mph - N/A   Clear
12:35 AM 41.0 °F 32.8 °F 19.4 °F 42% 30.05 in 10.0 mi NNW 16.1 mph - N/A   Clear
12:55 AM 39.2 °F 30.2 °F 19.4 °F 45% 30.05 in 10.0 mi NNW 17.3 mph - N/A   Clear
1:15 AM 41.0 °F 32.2 °F 19.4 °F 42% 30.05 in 10.0 mi NNW 18.4 mph - N/A   Clear
1:35 AM 39.2 °F 29.8 °F 19.4 °F 45% 30.05 in 10.0 mi NNW 18.4 mph - N/A   Clear
1:55 AM 39.2 °F 30.5 °F 19.4 °F 45% 30.06 in 10.0 mi North 16.1 mph - N/A   Clear
2:15 AM 37.4 °F 28.9 °F 19.4 °F 48% 30.06 in 10.0 mi North 13.8 mph - N/A   Clear
2:35 AM 35.6 °F 27.1 °F 19.4 °F 52% 30.06 in 10.0 mi North 12.7 mph - N/A   Clear
2:55 AM 35.6 °F 27.1 °F 19.4 °F 52% 30.06 in 10.0 mi NNW 12.7 mph - N/A   Clear
3:15 AM 32.0 °F 22.5 °F 19.4 °F 60% 30.06 in 10.0 mi North 12.7 mph - N/A   Clear
3:35 AM 32.0 °F 23.6 °F 17.6 °F 55% 30.06 in 10.0 mi NNW 10.4 mph - N/A   Clear
3:55 AM 30.2 °F 20.8 °F 17.6 °F 60% 30.06 in 10.0 mi NNW 11.5 mph - N/A   Clear
4:15 AM 30.2 °F 21.9 °F 17.6 °F 60% 30.06 in 10.0 mi North 9.2 mph - N/A   Clear
4:35 AM 30.2 °F 24.3 °F 17.6 °F 60% 30.06 in 10.0 mi NNW 5.8 mph - N/A   Clear
4:55 AM 28.4 °F 21.2 °F 17.6 °F 64% 30.06 in 10.0 mi NNW 6.9 mph - N/A   Clear
5:15 AM 32.0 °F 23.6 °F 17.6 °F 55% 30.06 in 10.0 mi WNW 10.4 mph - N/A   Clear
5:35 AM 33.8 °F 22.8 °F 17.6 °F 52% 30.05 in 10.0 mi NNW 18.4 mph 23.0 mph N/A   Clear
5:55 AM 39.2 °F 29.8 °F 17.6 °F 42% 30.06 in 10.0 mi NNW 18.4 mph - N/A   Clear
6:15 AM 37.4 °F 29.3 °F 17.6 °F 45% 30.07 in 10.0 mi NNW 12.7 mph - N/A   Clear
6:35 AM 37.4 °F 28.9 °F 17.6 °F 45% 30.09 in 10.0 mi NNW 13.8 mph - N/A   Clear
6:55 AM 39.2 °F 29.6 °F 17.6 °F 42% 30.09 in 10.0 mi NNW 19.6 mph - N/A   Clear
7:15 AM 37.4 °F 28.5 °F 15.8 °F 41% 30.10 in 10.0 mi NNW 15.0 mph - N/A   Clear
7:35 AM 39.2 °F 33.6 °F 15.8 °F 39% 30.11 in 10.0 mi North 8.1 mph - N/A   Clear
7:55 AM 37.4 °F 30.3 °F 15.8 °F 41% 30.12 in 10.0 mi NNW 10.4 mph - N/A   Clear
8:15 AM 41.0 °F 34.3 °F 15.8 °F 36% 30.12 in 10.0 mi NW 11.5 mph - N/A   Clear
8:35 AM 44.6 °F 38.1 °F 15.8 °F 31% 30.12 in 10.0 mi WNW 13.8 mph - N/A   Clear
8:55 AM 46.4 °F 40.4 °F 15.8 °F 29% 30.13 in 10.0 mi NW 13.8 mph - N/A   Clear
9:15 AM 50.0 °F - 14.0 °F 24% 30.14 in 10.0 mi NW 11.5 mph - N/A   Clear
9:35 AM 51.8 °F - 14.0 °F 22% 30.14 in 10.0 mi WNW 10.4 mph - N/A   Clear
9:55 AM 53.6 °F - 14.0 °F 21% 30.14 in 10.0 mi WNW 5.8 mph - N/A   Clear
10:15 AM 53.6 °F - 12.2 °F 19% 30.14 in 10.0 mi WNW 6.9 mph - N/A   Clear
10:35 AM 55.4 °F - 10.4 °F 17% 30.15 in 10.0 mi West 5.8 mph - N/A   Clear
10:55 AM 55.4 °F - 8.6 °F 15% 30.15 in 10.0 mi NE 3.5 mph - N/A   Clear
11:15 AM 57.2 °F - 8.6 °F 14% 30.15 in 10.0 mi West 4.6 mph - N/A   Clear
11:35 AM 57.2 °F - 8.6 °F 14% 30.14 in 10.0 mi SE 5.8 mph - N/A   Clear
11:55 AM 57.2 °F - 6.8 °F 13% 30.13 in 10.0 mi SSE 3.5 mph - N/A   Clear
12:15 PM 59.0 °F - 6.8 °F 13% 30.11 in 10.0 mi SE 6.9 mph - N/A   Clear
12:35 PM 57.2 °F - 8.6 °F 14% 30.10 in 10.0 mi Calm Calm - N/A   Clear
12:55 PM 59.0 °F - 8.6 °F 14% 30.10 in 10.0 mi SSE 15.0 mph 20.7 mph N/A   Clear
1:15 PM 59.0 °F - 10.4 °F 15% 30.09 in 10.0 mi SSE 13.8 mph 23.0 mph N/A   Clear
1:35 PM 59.0 °F - 10.4 °F 15% 30.09 in 10.0 mi SE 10.4 mph - N/A   Clear
1:55 PM 59.0 °F - 10.4 °F 15% 30.08 in 10.0 mi South 12.7 mph 26.5 mph N/A   Clear
2:15 PM 59.0 °F - 10.4 °F 15% 30.08 in 10.0 mi SE 9.2 mph - N/A   Clear
2:35 PM 59.0 °F - 10.4 °F 15% 30.07 in 10.0 mi SSE 13.8 mph - N/A   Clear
2:55 PM 59.0 °F - 10.4 °F 15% 30.08 in 10.0 mi South 12.7 mph 19.6 mph N/A   Clear
3:15 PM 59.0 °F - 12.2 °F 16% 30.08 in 10.0 mi South 13.8 mph 18.4 mph N/A   Clear
3:35 PM 59.0 °F - 10.4 °F 15% 30.09 in 10.0 mi SSW 10.4 mph 20.7 mph N/A   Clear
3:55 PM 59.0 °F - 10.4 °F 15% 30.09 in 10.0 mi South 10.4 mph - N/A   Clear
4:15 PM 59.0 °F - 10.4 °F 15% 30.09 in 10.0 mi South 13.8 mph - N/A   Clear
4:35 PM 57.2 °F - 10.4 °F 16% 30.09 in 10.0 mi South 10.4 mph - N/A   Clear
4:55 PM 57.2 °F - 10.4 °F 16% 30.10 in 10.0 mi SSE 13.8 mph - N/A   Clear
5:15 PM 55.4 °F - 10.4 °F 17% 30.11 in 10.0 mi South 11.5 mph - N/A   Clear
5:35 PM 53.6 °F - 10.4 °F 18% 30.11 in 10.0 mi South 9.2 mph - N/A   Clear
5:55 PM 50.0 °F - 8.6 °F 19% 30.11 in 10.0 mi SSE 10.4 mph - N/A   Clear
6:15 PM 46.4 °F 41.9 °F 8.6 °F 22% 30.12 in 10.0 mi SSE 9.2 mph - N/A   Clear
6:35 PM 46.4 °F 42.9 °F 8.6 °F 22% 30.12 in 10.0 mi South 6.9 mph - N/A   Clear
6:55 PM 44.6 °F 40.7 °F 8.6 °F 23% 30.13 in 10.0 mi SW 6.9 mph - N/A Thunderstorm Clear
7:15 PM 44.6 °F 40.2 °F 10.4 °F 25% 30.14 in 10.0 mi SE 8.1 mph - N/A   Clear
7:35 PM 44.6 °F 43.1 °F 10.4 °F 25% 30.15 in 10.0 mi East 3.5 mph - N/A   Clear
7:55 PM 44.6 °F 41.4 °F 15.8 °F 31% 30.16 in 10.0 mi East 5.8 mph - N/A   Clear
8:15 PM 41.0 °F 36.4 °F 14.0 °F 33% 30.17 in 10.0 mi SE 6.9 mph - N/A   Clear
8:35 PM 39.2 °F 33.0 °F 14.0 °F 36% 30.17 in 10.0 mi SE 9.2 mph - N/A   Clear
8:55 PM 37.4 °F 32.8 °F 14.0 °F 38% 30.19 in 10.0 mi SE 5.8 mph - N/A   Clear
9:15 PM 37.4 °F 33.8 °F 14.0 °F 38% 30.19 in 10.0 mi ESE 4.6 mph - N/A   Clear
9:35 PM 30.2 °F - 10.4 °F 44% 30.20 in 10.0 mi Calm Calm - N/A   Clear
9:55 PM 26.6 °F - 10.4 °F 51% 30.20 in 10.0 mi Calm Calm - N/A   Clear
10:15 PM 26.6 °F 22.6 °F 10.4 °F 51% 30.21 in 10.0 mi WNW 3.5 mph - N/A   Clear
10:35 PM 24.8 °F 17.9 °F 10.4 °F 54% 30.21 in 10.0 mi NNW 5.8 mph - N/A   Clear
10:55 PM 24.8 °F 19.1 °F 10.4 °F 54% 30.21 in 10.0 mi NNW 4.6 mph - N/A   Clear
11:15 PM 24.8 °F 19.1 °F 10.4 °F 54% 30.20 in 10.0 mi North 4.6 mph - N/A   Clear
11:35 PM 23.0 °F 15.8 °F 8.6 °F 54% 30.19 in 10.0 mi North 5.8 mph - N/A   Clear
11:55 PM 23.0 °F 17.0 °F 8.6 °F 54% 30.19 in 10.0 mi North 4.6 mph - N/A   Clear